sat.trackr.live / text

‹ back to catalog

STARLINK-1555

NORAD 46032 · 2020-055F

PAYLOAD ACTIVE UNKNOWN

§ Identity

Operator
Country
US
Launch date
2020-08-07
Launch site
AFETR
Launch vehicle
Mass (kg)
RCS (m²)

Purposes: comms

External: N2YO · Heavens-Above · Gunter

§ Orbital elements

Epoch: 2026-09-20T02:39:34.275168Z

Period
94.01 min
Inclination
53.1596°
Eccentricity
0.0001312
Mean motion
15.31698712 rev/d
Perigee alt
469.8 km
Apogee alt
471.6 km
Semi-major
6,848.9 km
B*
1.9877e-5
RAAN
302.6275°
Arg perigee
96.1583°
Mean anomaly
263.9568°
Rev number
33,867

§ Raw data

STARLINK-15551 46032U 20055F   26263.11081337  .00000252  00000+0  19877-4 0  99942 46032  53.1596 302.6275 0001312  96.1583 263.9568 15.31698712338679

JSON: /api/v1/satellites/46032 · /tle

For live sub-satellite position, see the globe view (requires WebGL).

§ Visibility from observer

Set your observer location to see the next 7 days of passes ≥ 10°. The values pass through the URL so the page stays shareable.

No JS? Fill the form by hand. The geolocation button needs JavaScript.